Regional Weather Roundup
Issued by NWS Northern Indiana

Home | Current Version | Previous Version | Text Only | Print | Product List | Glossary Off
Versions: 1 2 3 4 5 6 7 8 9 10 11 12 13 14 15 16 17 18 19 20 21 22 23 24 25 26 27 28 29 30 31 32 33 34 35 36 37 38 39 40 41 42 43 44 45 46 47 48 49 50

000
ASUS43 KIWX 311200
RWRIWX

KIWX WEATHER ROUNDUP
NATIONAL WEATHER SERVICE NORTHERN INDIANA
800 AM EDT FRI JUL 31 2015

NOTE: "FAIR" INDICATES FEW OR NO CLOUDS BELOW 12,000 FEET WITH NO
SIGNIFICANT WEATHER AND/OR OBSTRUCTIONS TO VISIBILITY.

* THESE STATIONS ARE NOT UNDER NWS QUALITY CONTROL. THEY ALSO MAY NOT
  REPORT WEATHER SUCH AS PRECIPITATION OR FOG.

INZ001>027-311300-
NORTHERN INDIANA

CITY           SKY/WX    TMP DP  RH WIND       PRES   REMARKS
GARY*          SUNNY     70  63  78 MISG      30.03S
KNOX*          SUNNY     64  63  94 W5        30.03R
SOUTH BEND     SUNNY     68  62  81 SW5       30.03R
6HR MIN TEMP:  65; 6HR MAX TEMP:  68;

GOSHEN         SUNNY     67  62  84 W3        30.02R
6HR MIN TEMP:  62; 6HR MAX TEMP:  67;

MONTICELLO*    SUNNY     65  64  98 W3        30.05R
6HR MIN TEMP:  63; 6HR MAX TEMP:  67;

WARSAW*        SUNNY     66  61  82 W3        30.04R
ANGOLA*        SUNNY     70  63  78 W3        30.01S
FORT WAYNE     SUNNY     69  62  78 W9        30.03R
6HR MIN TEMP:  64; 6HR MAX TEMP:  69;


$$
INZ028>050-311300-
CENTRAL INDIANA

CITY           SKY/WX    TMP DP  RH WIND       PRES   REMARKS
LAFAYETTE      SUNNY     65  64  97 CALM      30.07R
6HR MIN TEMP:  61; 6HR MAX TEMP:  66;

KOKOMO*        SUNNY     68  61  77 W8        30.06R
6HR MIN TEMP:  64; 6HR MAX TEMP:  70;

MUNCIE*        SUNNY     67  62  84 NW7       30.05R
6HR MIN TEMP:  63; 6HR MAX TEMP:  67;

INDIANAPOLIS   MOSUNNY   71  63  75 NW7       30.06R
6HR MIN TEMP:  66; 6HR MAX TEMP:  71;


$$
MIZ043>046-050>051-056>058-064>065-071>073-077>080-311300-
SOUTHWEST LOWER MICHIGAN

CITY           SKY/WX    TMP DP  RH WIND       PRES   REMARKS
BATTLE CREEK   SUNNY     70  61  73 W7        30.00R
6HR MIN TEMP:  64; 6HR MAX TEMP:  70;

BENTON HARBOR  SUNNY     73  64  73 W9        30.00R
6HR MIN TEMP:  71; 6HR MAX TEMP:  74;

COLDWATER*     SUNNY     65  60  85 W6        30.01R
6HR MIN TEMP:  60; 6HR MAX TEMP:  66;

HILLSDALE*     SUNNY     69  62  79 W6        30.00S
6HR MIN TEMP:  65; 6HR MAX TEMP:  69;

HOLLAND        SUNNY     73  62  68 W8        29.98R
6HR MIN TEMP:  67; 6HR MAX TEMP:  74;

GRAND RAPIDS   MOSUNNY   69  61  75 W9        29.97S
6HR MIN TEMP:  65; 6HR MAX TEMP:  69;

KALAMAZOO      SUNNY     69  61  75 MISG      30.00S
6HR MIN TEMP:  63; 6HR MAX TEMP:  69;

STURGIS*       SUNNY     66  63  88 CALM      30.01R
THREE RIVERS*  FAIR      67  63  86 CALM      30.01S
6HR MIN TEMP:  62; 6HR MAX TEMP:  67;


$$
OHZ001>008-015>018-024>025-311300-
NORTHWEST OHIO

CITY           SKY/WX    TMP DP  RH WIND       PRES   REMARKS
DEFIANCE       SUNNY     67  61  81 CALM      30.00R
6HR MIN TEMP:  62; 6HR MAX TEMP:  67; 6HR PCP: TRACE;

FINDLAY        SUNNY     69  61  75 W8        30.00R
6HR MIN TEMP:  64; 6HR MAX TEMP:  69;

TOLEDO EXPRESS SUNNY     66  59  78 W5        29.98R
6HR MIN TEMP:  63; 6HR MAX TEMP:  68;

TOLEDO METCALF SUNNY     68  59  73 W5        29.98R
6HR MIN TEMP:  63; 6HR MAX TEMP:  68;

LIMA           SUNNY     67  62  84 W6        30.02R
6HR MIN TEMP:  64; 6HR MAX TEMP:  67;


$$
AND FOR LAKE MICHIGAN COASTAL AND OPEN LAKE BUOY OBSERVATIONS

STATION/POSITION TEMP    WIND        PRES    VSBY  WAVE
                 AIR SEA DIR/SP/G                  HT/PER
                 (F)     (DEG/KT/KT) (MB)    (MI)  (FT/S)
CALUMET HARBOR    69     220/  5/  7   N/A
MICHIGAN CITY     71     190/  9/ 10   N/A
BURNS HARBOR      72     210/  5/  7 1016.6F
SAINT JOSEPH      73     240/  8/ 10 1016.6S
4 MI NW BRIDGMAN  74 74  310/ 12/ 14   N/A           2/ 3
MICHIGAN CITY     74 73  280/ 10/ 12   N/A           2/ 4

$$
&&


USA.gov is the U.S. government's official web portal to all federal, state and local government web resources and services.